CW5437 Weather Reports


time (UTC)temp
C
wind
direction
speed
KPH
gust
KPH
rain 1hr
cm
rain 24hr
cm
rain mn
cm
humidity
%
barometer
mb
20260504001006 12 228 14.5 19.3 0.00 0.00 0.00 41 1012.4
20260504000007 13 250 12.9 17.7 0.00 0.00 0.00 40 1012.4
20260503235002 13 273 11.3 17.7 0.00 0.00 0.00 40 1012.4
20260503233007 13 250 12.9 17.7 0.00 0.00 0.00 39 1012.5
20260503232002 13 273 12.9 19.3 0.00 0.00 0.00 39 1012.4
20260503231002 13 250 20.9 27.4 0.00 0.00 0.00 38 1012.3
20260503230003 13 228 4.8 9.7 0.00 0.00 0.00 38 1012.4
20260503225030 13 250 9.7 12.9 0.00 0.00 0.00 36 1012.5
20260503224005 13 250 14.5 19.3 0.00 0.00 0.00 35 1012.4
20260503223006 13 250 4.8 9.7 0.00 0.00 0.00 37 1012.4
20260503222007 13 295 16.1 27.4 0.00 0.00 0.00 35 1012.5
20260503221007 13 318 12.9 24.1 0.00 0.00 0.00 35 1012.4
20260503220007 13 295 9.7 16.1 0.00 0.00 0.00 34 1012.5
20260503215002 13 295 8.0 14.5 0.00 0.00 0.00 34 1012.4
20260503214003 13 295 19.3 37.0 0.00 0.00 0.00 32 1012.3
20260503213003 14 250 17.7 30.6 0.00 0.00 0.00 32 1012.2
20260503212004 14 250 9.7 22.5 0.00 0.00 0.00 32 1012.1
20260503210004 14 273 16.1 30.6 0.00 0.00 0.00 31 1012.2
20260503205005 15 273 22.5 29.0 0.00 0.00 0.00 30 1012.2
20260503204005 14 273 20.9 29.0 0.00 0.00 0.00 31 1012.2
20260503203006 14 273 17.7 30.6 0.00 0.00 0.00 30 1012.5
20260503195004 13 250 30.6 40.2 0.00 0.00 0.00 35 1012.7
20260503193004 13 250 20.9 38.6 0.00 0.00 0.00 34 1013.1
20260503192004 13 250 20.9 29.0 0.00 0.00 0.00 36 1013.2
20260503191006 13 228 20.9 27.4 0.00 0.00 0.00 38 1013.4
20260503190006 13 273 27.4 37.0 0.00 0.00 0.00 35 1013.4
20260503185006 13 250 12.9 17.7 0.00 0.00 0.00 36 1013.5
20260503184007 14 250 24.1 35.4 0.00 0.00 0.00 37 1013.8
20260503183001 13 273 24.1 38.6 0.00 0.00 0.00 35 1013.8
20260503182002 13 250 22.5 30.6 0.00 0.00 0.00 35 1014.0
20260503181003 13 250 25.7 37.0 0.00 0.00 0.00 37 1014.0
20260503180004 13 250 29.0 40.2 0.00 0.00 0.00 34 1014.1
20260503173002 13 250 25.7 38.6 0.00 0.00 0.00 38 1014.2
20260503172003 12 273 24.1 35.4 0.00 0.00 0.00 37 1014.4
20260503171004 12 250 29.0 38.6 0.00 0.00 0.00 37 1014.4
20260503131006 6 273 14.5 20.9 0.00 0.00 0.00 65 1016.1
20260503081007 0 250 4.8 6.4 0.00 0.00 0.00 90 1015.8
20260503072002 0 228 8.0 9.7 0.00 0.00 0.00 87 1015.8
20260503071003 0 228 8.0 9.7 0.00 0.00 0.00 86 1015.7
20260503054002 1 228 6.4 8.0 0.00 0.00 0.00 81 1016.0
20260503053002 1 228 6.4 9.7 0.00 0.00 0.00 81 1016.0
20260503052003 1 228 6.4 8.0 0.00 0.00 0.00 81 1016.1
20260503051003 1 228 8.0 11.3 0.00 0.00 0.00 80 1016.1
20260503050004 1 228 9.7 11.3 0.00 0.00 0.00 79 1016.2
20260503045005 2 228 8.0 11.3 0.00 0.00 0.00 78 1016.2
20260503042003 2 250 9.7 11.3 0.00 0.00 0.00 74 1016.2
20260503041004 2 250 6.4 8.0 0.00 0.00 0.00 73 1016.3
20260503040004 2 228 6.4 8.0 0.00 0.00 0.00 73 1016.3
20260503035004 2 273 6.4 8.0 0.00 0.00 0.00 72 1016.4
20260503034004 2 228 4.8 6.4 0.00 0.00 0.00 71 1016.4
20260503033005 3 228 3.2 4.8 0.00 0.00 0.00 70 1016.4
20260503032006 3 205 3.2 4.8 0.00 0.00 0.00 70 1016.5
20260503031001 3 228 4.8 6.4 0.00 0.00 0.00 70 1016.5
20260503030002 3 205 4.8 6.4 0.00 0.00 0.00 70 1016.5
20260503025002 3 228 4.8 6.4 0.00 0.00 0.00 69 1016.6
20260503024003 3 250 8.0 9.7 0.00 0.00 0.00 68 1016.7
20260503023004 3 250 9.7 11.3 0.00 0.00 0.00 66 1016.7
20260503022005 3 250 9.7 11.3 0.00 0.00 0.00 66 1016.7
20260503020005 3 295 6.4 12.9 0.00 0.00 0.00 66 1016.8
20260503014005 3 273 6.4 12.9 0.00 0.00 0.00 66 1016.7
20260503013006 3 318 3.2 8.0 0.00 0.00 0.00 66 1016.7
20260503012007 3 273 6.4 9.7 0.00 0.00 0.00 67 1016.7
20260503011006 3 295 9.7 16.1 0.00 0.00 0.00 65 1016.6
20260503010002 3 273 8.0 17.7 0.00 0.00 0.00 64 1016.6
20260503004002 3 318 6.4 11.3 0.00 0.00 0.00 66 1016.5
20260503003002 3 295 4.8 6.4 0.00 0.00 0.00 66 1016.4
20260503002003 3 273 9.7 19.3 0.00 0.00 0.00 64 1016.4